This demonstration page uses our WeatherBlox Daily Observations layout. Learn more.

Left ArrowRight Arrow

44.89941, -97.11507

Hourly Observations for June 27, 2018

Temp ( °F °C ) Dew Point ( °F °C ) Humidity (%) Winds ( mph kmh ) Pressure ( in mb ) Visibility ( mi km ) Precip ( " mm )
12:53 am 00:53 Clear 64 17.8 64 17.8 100 100 Calm 29.85 1011 7 11 0.00 0.00
1:53 am 01:53 Clear with Mist and Fog 61 16.1 61 16.1 100 100 S 3 6 29.85 1011 3 5 0.00 0.00
2:35 am 02:35 Clear with Mist and Fog 62 16.7 62 16.7 100 100 Calm 29.85 1011 2 3 0.00 0.00
2:39 am 02:39 Clear with Mist and Fog 62 16.7 62 16.7 100 100 Calm 29.85 1011 1 1 0.00 0.00
2:42 am 02:42 Mostly Cloudy with Fog 61 16.1 61 16.1 100 100 Calm 29.85 1011 1 1 0.00 0.00
2:49 am 02:49 Mostly Cloudy with Fog 61 16 61 16 100 100 Calm 29.85 1011 0 0 0.00 0.00
2:53 am 02:53 Mostly Cloudy with Fog 61 16.1 61 16.1 100 100 Calm 29.85 1011 0 0 0.00 0.00
2:57 am 02:57 Mostly Cloudy with Mist and Fog 61 16.1 61 16.1 100 100 Calm 29.85 1011 1 2 0.00 0.00
2:59 am 02:59 Mostly Clear with Mist and Fog 60 15.6 60 15.6 100 100 Calm 29.83 1010 2 2 0.00 0.00
3:01 am 03:01 Mostly Clear with Mist and Fog 60 15.6 60 15.6 100 100 ESE 3 6 29.83 1010 3 5 0.00 0.00
3:16 am 03:16 Clear with Mist and Fog 60 15.6 60 15.6 100 100 Calm 29.85 1011 2 3 0.00 0.00
3:29 am 03:29 Clear with Mist and Fog 61 16.1 61 16.1 100 100 Calm 29.85 1011 1 1 0.00 0.00
3:33 am 03:33 Mostly Cloudy with Fog 60 15.6 60 15.6 100 100 Calm 29.85 1011 0 0 0.00 0.00
3:53 am 03:53 Mostly Cloudy with Fog 58 14.4 58 14.4 100 100 Calm 29.84 1011 0 0 0.00 0.00
4:38 am 04:38 Mostly Cloudy with Fog 60 15.6 60 15.6 100 100 Calm 29.85 1011 0 0 0.00 0.00
4:53 am 04:53 Mostly Cloudy with Fog 60 15.6 60 15.6 100 100 NW 5 7 29.89 1012 0 0 0.00 0.00
5:00 am 05:00 Mostly Cloudy with Mist and Fog 60 15.6 60 15.6 100 100 WNW 3 6 29.88 1012 1 1 0.00 0.00
5:07 am 05:07 Mostly Cloudy with Mist and Fog 61 16.1 61 16.1 100 100 W 5 7 29.88 1012 1 1 0.00 0.00
5:10 am 05:10 Mostly Cloudy with Mist and Fog 61 16.1 61 16.1 100 100 W 6 9 29.88 1012 2 2 0.00 0.00
5:14 am 05:14 Partly Cloudy with Mist and Fog 61 16.1 61 16.1 100 100 W 7 11 29.88 1012 3 4 0.00 0.00
5:17 am 05:17 Mostly Cloudy with Mist and Fog 61 16.1 61 16.1 100 100 W 7 11 29.88 1012 1 2 0.00 0.00
5:25 am 05:25 Mostly Cloudy with Fog 61 16.1 61 16.1 100 100 W 7 11 29.88 1012 1 1 0.00 0.00
5:53 am 05:53 Mostly Cloudy with Mist and Fog 62 16.7 62 16.7 100 100 SW 7 11 29.89 1012 1 1 0.00 0.00
5:58 am 05:58 Mostly Cloudy with Mist and Fog 62 16.7 62 16.7 100 100 SSW 6 9 29.88 1012 2 2 0.00 0.00
6:00 am 06:00 Partly Cloudy with Mist and Fog 62 16.7 62 16.7 100 100 SSW 7 11 29.88 1012 2 3 0.00 0.00
6:14 am 06:14 Partly Cloudy with Mist and Fog 63 17.2 63 17.2 100 100 SW 6 9 29.88 1012 2 3 0.00 0.00
6:25 am 06:25 Sunny with Mist and Fog 63 17.2 63 17.2 100 100 SSW 7 11 29.85 1011 3 4 0.00 0.00
6:38 am 06:38 Sunny with Mist and Fog 64 17.8 64 17.8 100 100 SSW 9 15 29.85 1011 3 5 0.00 0.00
6:53 am 06:53 Sunny with Mist and Fog 64 17.8 64 17.8 100 100 SSW 13 20 29.82 1010 4 6 0.00 0.00
7:53 am 07:53 Sunny 66 18.9 65 18.3 96 96 undefined N/A 29.78 1009 10 16 0.00 0.03
8:01 am 08:01 Mostly Sunny 66 18.9 65 18.3 96 96 VRB 3 6 29.80 1009 10 16 0.00 0.00
8:53 am 08:53 Mostly Sunny 69 20.6 65 18.3 87 87 NE 5 7 29.83 1010 10 16 0.00 0.00
9:53 am 09:53 Sunny 72 22.2 65 18.3 79 79 S 5 7 29.82 1010 10 16 0.00 0.00
10:53 am 10:53 Sunny 76 24.4 65 18.3 69 69 NW 12 19 29.83 1010 10 16 0.00 0.00
11:53 am 11:53 Sunny 79 26.1 68 20 69 69 NW 10 17 29.83 1010 10 16 0.00 0.00
12:53 pm 12:53 Partly Cloudy 80 26.7 68 20 67 67 NW 13 20 29.83 1010 10 16 0.00 0.00
1:53 pm 13:53 Mostly Cloudy 80 26.7 66 18.9 62 62 WNW 12 19 29.84 1011 10 16 0.00 0.00
2:53 pm 14:53 Mostly Sunny 81 27.2 65 18.3 58 58 NW 6 9 29.83 1010 10 16 0.00 0.00
3:53 pm 15:53 Sunny 82 27.8 65 18.3 56 56 WNW 6 9 29.83 1010 10 16 0.00 0.00
4:53 pm 16:53 Sunny 83 28.3 65 18.3 55 55 NNW 6 9 29.82 1010 10 16 0.00 0.00
5:53 pm 17:53 Sunny 84 28.9 63 17.2 49 49 Calm 29.80 1009 10 16 0.00 0.00
6:53 pm 18:53 Sunny 84 28.9 63 17.2 49 49 Calm 29.80 1009 10 16 0.00 0.00
7:53 pm 19:53 Sunny 82 27.8 66 18.9 58 58 SSE 6 9 29.80 1009 10 16 0.00 0.00
8:53 pm 20:53 Sunny 78 25.6 68 20 71 71 SSE 7 11 29.81 1010 10 16 0.00 0.00
9:53 pm 21:53 Clear 75 23.9 69 20.6 82 82 SE 7 11 29.82 1010 10 16 0.00 0.00
10:53 pm 22:53 Clear 73 22.8 68 20 84 84 SSE 8 13 29.84 1011 10 16 0.00 0.00
11:53 pm 23:53 Clear 72 22.2 68 20 87 87 SSE 10 17 29.84 1011 10 16 0.00 0.00

Powered by AerisWeather